Location: Dammartin
(48.9032°N, 1.6195°E)
Time: 11:00:25
(UTC+00:00)

Cosmos 1741 Rocket - Pass Details

Date: 03 February 2023
Orbit: 761 x 781 km, 74.0° (Epoch: 29 March)

Event Time Altitude Azimuth Distance (km) Brightness Sun altitude
Rises 18:30:37 0° 178° (S) 3,247 7.3 -16.1°
Reaches altitude 10° 18:33:06 10° 171° (S) 2,326 6.5 -16.5°
Maximum altitude 18:38:00 40° 103° (ESE) 1,143 4.4 -17.3°
Enters shadow 18:40:23 26° 54° (NE) 1,514 5.0 -17.7°
